Weather History for Alexandria Borg El Arab, Egypt

Change the Weather History Date:

Wednesday, January 29, 2014

  Actual Average (HEAX) Record (HEAX)
Temperature  
Mean Temperature 56 °F -  
Max Temperature 71 °F 63 °F 82 °F (2005)
Min Temperature 42 °F 47 °F 39 °F (1999)
Degree Days  
Heating Degree Days 8    
Growing Degree Days 6 (Base 50)    
Moisture  
Dew Point 39 °F    
Average Humidity 57    
Maximum Humidity 82    
Minimum Humidity 29    
Precipitation  
Precipitation 0.00 in - - ()
Sea Level Pressure  
Sea Level Pressure 30.01 in    
Wind  
Wind Speed 7 mph ()    
Max Wind Speed 16 mph    
Max Gust Speed -    
Averages and records for this station are not official NWS values.
T = Trace of Precipitation, MM = Missing Value Source: Averaged Metar Reports

Daily Weather History Graph

Daily Weather History Graph

Search for Another Location

Airport:

Trip Planner

Search our weather history database for the weather conditions in past years. The results will help you decide how hot, cold, wet, or windy it might be!

Date:

Astronomy

Jan. 29, 2014 Rise Set
Actual Time 6:54 AM EET 5:34 PM EET
Civil Twilight 6:29 AM EET 5:59 PM EET
Nautical Twilight 6:00 AM EET 6:28 PM EET
Astronomical Twilight 5:31 AM EET 6:57 PM EET
Moon 5:12 AM EET (1/29) 4:10 PM EET (1/29)
Length of Visible Light 11h 30m
Length of Day
10h 39m
Waning Crescent, 3% of the Moon is Illuminated
Jan 29
Waning Crescent
Jan 30
New
Feb 6
First Quarter
Feb 15
Full
Feb 22
Last Quarter

Hourly Weather History & Observations

Time (EET) Temp. Windchill Dew Point Humidity Pressure Visibility Wind Dir Wind Speed Gust Speed Precip Events Conditions
12:00 AM 50.0 °F - 39.2 °F 66% 29.98 in - South 6.9 mph - N/A   Clear
1:00 AM 44.6 °F 40.7 °F 37.4 °F 76% 29.95 in - SSE 6.9 mph - N/A   Clear
2:00 AM 44.6 °F 42.2 °F 37.4 °F 76% 29.95 in - South 4.6 mph - N/A   Clear
3:00 AM 46.4 °F 43.5 °F 35.6 °F 66% 29.95 in - South 5.8 mph - N/A   Clear
4:00 AM 42.8 °F 38.6 °F 37.4 °F 81% 29.98 in - South 6.9 mph - N/A   Clear
5:00 AM 44.6 °F 41.4 °F 35.6 °F 71% 29.98 in - South 5.8 mph - N/A   Clear
6:00 AM 46.4 °F 41.9 °F 35.6 °F 66% 30.01 in - SSW 9.2 mph - N/A   Clear
7:00 AM 42.8 °F 38.0 °F 35.6 °F 76% 30.01 in - South 8.1 mph - N/A   Clear
8:00 AM 44.6 °F 39.2 °F 35.6 °F 71% 30.01 in - SSE 10.4 mph - N/A   Clear
9:00 AM 48.2 °F - 37.4 °F 66% 30.01 in - South 8.1 mph - N/A   Clear
10:00 AM 57.2 °F - 41.0 °F 55% 30.04 in - South 11.5 mph - N/A   Clear
11:00 AM 60.8 °F - 39.2 °F 45% 30.04 in - SSW 15.0 mph - N/A   Clear
12:00 PM 64.4 °F - 39.2 °F 40% 30.01 in - SSW 16.1 mph - N/A   Clear
1:00 PM 68.0 °F - 37.4 °F 33% 30.01 in - SSW 16.1 mph - N/A   Clear
2:00 PM 71.6 °F - 39.2 °F 31% 30.01 in - WSW 15.0 mph - N/A   Clear
3:00 PM 71.6 °F - 37.4 °F 29% 30.01 in - WSW 10.4 mph - N/A   Clear
4:00 PM 71.6 °F - 37.4 °F 29% 30.01 in - WSW 13.8 mph - N/A   Clear
5:00 PM 69.8 °F - 37.4 °F 31% 30.01 in - WSW 6.9 mph - N/A   Clear
6:00 PM 62.6 °F - 41.0 °F 45% 30.04 in - SW 3.5 mph - N/A   Clear
7:00 PM 60.8 °F - 41.0 °F 48% 30.04 in - Calm Calm - N/A   Clear
8:00 PM 60.8 °F - 41.0 °F 48% 30.06 in - Calm Calm - N/A   Clear
9:00 PM 57.2 °F - 46.4 °F 67% 30.06 in - NNW 5.8 mph - N/A   Clear
10:00 PM 57.2 °F - 46.4 °F 67% 30.09 in - NNW 5.8 mph - N/A   Clear
11:00 PM 55.4 °F - 50.0 °F 82% 30.09 in - North 4.6 mph - N/A   Clear